Date String (YYYY-MM-DD hh:mm:ss) UTC,Instrument flags,Ambient pressure (hPa),Sample flow (lpm),Bypass flow (lpm),Sample temperature (°C),Ambient temperature (°C),ASC tube jacket temperature (°C),LED temperature (°C),Box temperature (°C),Sample RH (%),Span deviation,Mass concentration (μg/m³),Mass concentration (μg/m³),Mass concentration (μg/m³)
DateTimeUTC,F1_M11,P_M11,Q1_M11,Q2_M11,T1_M11,T2_M11,T3_M11,T4_M11,T5_M11,U1_M11,ZSPAN_M11,X0_M11,X2_M11,X1_M11
2022-05-10 21:00:00,,0824.1,5.00,0.00,27.2,26.7,00.0,36.1,29.1,11.3,0000.0,0021.99,0005.16,0002.75
2022-05-10 21:01:00,,0824.1,5.00,0.00,27.3,26.7,00.0,36.1,29.1,10.5,0000.0,0020.48,0005.22,0002.82
2022-05-10 21:02:00,,0824.1,5.00,0.00,27.3,26.7,00.0,36.1,29.1,10.6,0000.0,0020.49,0005.18,0002.84
2022-05-10 21:03:00,,0824.0,4.99,0.00,27.3,26.8,00.0,36.1,29.1,10.5,0000.0,0021.57,0005.14,0002.85
2022-05-10 21:04:00,,0824.1,5.01,0.00,27.3,26.8,00.0,36.1,29.1,10.6,0000.0,0021.71,0005.18,0002.87
2022-05-10 21:05:00,,0824.1,4.99,0.00,27.3,26.8,00.0,36.1,29.1,10.6,0000.0,0021.88,0005.22,0002.87
2022-05-10 21:06:00,,0824.1,5.01,0.00,27.3,26.8,00.0,36.1,29.1,10.3,0000.0,0021.98,0005.26,0002.92
2022-05-10 21:07:00,,0824.1,5.00,0.00,27.3,26.7,00.0,36.1,29.2,10.5,0000.0,0021.74,0005.30,0002.96
2022-05-10 21:08:00,,0824.1,5.00,0.00,27.3,26.7,00.0,36.2,29.2,10.6,0000.0,0020.89,0005.33,0002.97
2022-05-10 21:09:00,,0824.1,5.01,0.00,27.3,26.8,00.0,36.2,29.2,11.3,0000.0,0020.59,0005.31,0002.96
2022-05-10 21:10:00,,0824.1,4.99,0.00,27.3,26.8,00.0,36.2,29.2,10.9,0000.0,0020.75,0005.32,0002.99
2022-05-10 21:11:00,,0824.0,5.00,0.00,27.3,26.8,00.0,36.2,29.2,11.0,0000.0,0019.80,0005.30,0003.08
2022-05-10 21:12:00,,0824.1,5.01,0.00,27.4,26.8,00.0,36.2,29.2,11.2,0000.0,0020.56,0005.27,0003.12
2022-05-10 21:13:00,,0824.0,4.99,0.00,27.4,26.8,00.0,36.2,29.2,11.5,0000.0,0021.50,0005.38,0003.15
2022-05-10 21:14:00,,0824.0,5.00,0.00,27.4,26.8,00.0,36.2,29.2,10.7,0000.0,0020.91,0005.44,0003.18
2022-05-10 21:15:00,,0824.0,5.00,0.00,27.4,26.9,00.0,36.2,29.2,10.7,0000.0,0020.39,0005.51,0003.22
2022-05-10 21:16:00,,0824.0,4.99,0.00,27.4,26.9,00.0,36.2,29.2,10.6,0000.0,0021.01,0005.52,0003.24
2022-05-10 21:17:00,,0824.0,5.00,0.00,27.4,26.9,00.0,36.3,29.2,10.5,0000.6,0021.09,0005.52,0003.27
2022-05-10 21:18:00,,0824.0,4.99,0.00,27.4,26.8,00.0,36.3,29.3,10.4,0001.7,0021.55,0005.54,0003.27
2022-05-10 21:19:00,,0824.0,5.00,0.00,27.4,26.8,00.0,36.3,29.3,10.8,0004.0,0021.23,0005.49,0003.28
2022-05-10 21:20:00,,0824.0,5.01,0.00,27.4,26.8,00.0,36.3,29.2,10.3,0002.0,0021.18,0005.51,0003.31
2022-05-10 21:21:00,,0824.0,4.99,0.00,27.4,26.8,00.0,36.3,29.3,10.5,0003.1,0020.98,0005.55,0003.32
2022-05-10 21:22:00,,0824.0,5.00,0.00,27.4,26.8,00.0,36.3,29.3,10.6,0003.2,0021.72,0005.59,0003.30
2022-05-10 21:23:00,,0824.0,5.00,0.00,27.5,26.9,00.0,36.3,29.3,10.4,0002.2,0020.47,0005.53,0003.27
2022-05-10 21:24:00,,0824.0,4.99,0.00,27.5,26.9,00.0,36.3,29.4,10.4,0000.0,0019.64,0005.46,0003.24
2022-05-10 21:25:00,,0824.0,5.02,0.00,27.5,26.9,00.0,36.3,29.4,10.6,0000.0,0019.67,0005.46,0003.24
2022-05-10 21:26:00,,0823.9,5.00,0.00,27.5,27.0,00.0,36.3,29.4,10.9,0000.0,0019.51,0005.44,0003.24
2022-05-10 21:27:00,,0823.9,5.00,0.00,27.6,27.0,00.0,36.4,29.5,11.2,0000.0,0019.56,0005.36,0003.23
2022-05-10 21:28:00,,0823.9,5.01,0.00,27.6,27.0,00.0,36.4,29.5,11.3,0000.0,0019.76,0005.34,0003.23
2022-05-10 21:29:00,,0823.8,4.99,0.00,27.6,27.1,00.0,36.4,29.5,11.4,0000.0,0019.21,0005.33,0003.22
2022-05-10 21:30:00,,0823.8,5.01,0.00,27.6,27.1,00.0,36.4,29.5,10.4,0000.0,0020.03,0005.37,0003.22
2022-05-10 21:31:00,,0823.8,5.00,0.00,27.6,27.1,00.0,36.4,29.5,10.5,0000.0,0021.20,0005.43,0003.21
2022-05-10 21:32:00,,0823.8,5.00,0.00,27.6,27.0,00.0,36.4,29.5,10.6,0000.0,0021.06,0005.39,0003.21
2022-05-10 21:33:00,,0823.8,4.99,0.00,27.6,27.1,00.0,36.5,29.5,11.1,0000.0,0020.15,0005.33,0003.21
2022-05-10 21:34:00,,0823.8,5.00,0.00,27.6,27.1,00.0,36.5,29.5,11.1,0000.0,0020.15,0005.33,0003.20
2022-05-10 21:35:00,,0823.8,5.00,0.00,27.7,27.1,00.0,36.5,29.5,10.6,0000.0,0020.33,0005.38,0003.20
2022-05-10 21:36:00,,0823.8,5.01,0.00,27.7,27.1,00.0,36.5,29.5,10.4,0000.0,0020.04,0005.35,0003.18
2022-05-10 21:37:00,,0823.8,4.99,0.00,27.7,27.1,00.0,36.5,29.5,10.2,0000.0,0020.30,0005.32,0003.15
2022-05-10 21:38:00,,0823.8,5.01,0.00,27.7,27.1,00.0,36.5,29.6,10.3,0000.0,0021.26,0005.35,0003.14
2022-05-10 21:39:00,,0823.9,5.00,0.00,27.7,27.1,00.0,36.5,29.6,11.3,0000.0,0022.23,0005.44,0003.12
2022-05-10 21:40:00,,0823.8,4.99,0.00,27.7,27.2,00.0,36.6,29.6,10.8,0000.0,0022.09,0005.40,0003.09
2022-05-10 21:41:00,,0823.9,5.01,0.00,27.8,27.2,00.0,36.6,29.7,10.4,0000.0,0021.48,0005.35,0003.05
2022-05-10 21:42:00,,0823.8,4.99,0.00,27.8,27.2,00.0,36.6,29.7,10.7,0000.0,0021.56,0005.30,0003.00
2022-05-10 21:43:00,,0823.7,5.01,0.00,27.8,27.3,00.0,36.6,29.7,10.2,0000.0,0021.25,0005.26,0002.91
2022-05-10 21:44:00,,0823.6,4.99,0.00,27.8,27.3,00.0,36.6,29.7,10.7,0000.0,0022.74,0005.28,0002.82
2022-05-10 21:45:00,,0823.7,5.00,0.00,27.8,27.3,00.0,36.6,29.7,11.4,0000.0,0022.87,0005.29,0002.76
2022-05-10 21:46:00,,0823.6,5.00,0.00,27.9,27.3,00.0,36.7,29.8,10.9,0000.0,0022.95,0005.17,0002.68
2022-05-10 21:47:00,,0823.6,5.00,0.00,27.9,27.3,00.0,36.7,29.8,11.1,0000.0,0023.27,0005.17,0002.60
2022-05-10 21:48:00,,0823.6,5.00,0.00,27.9,27.3,00.0,36.7,29.8,10.7,0000.0,0023.15,0005.11,0002.51
2022-05-10 21:49:00,,0823.6,4.99,0.00,27.9,27.4,00.0,36.7,29.8,10.9,0000.0,0022.16,0005.06,0002.41
2022-05-10 21:50:00,,0823.7,5.01,0.00,27.9,27.4,00.0,36.7,29.8,10.4,0000.0,0020.75,0004.93,0002.30
2022-05-10 21:51:00,,0823.7,5.01,0.00,27.9,27.4,00.0,36.7,29.8,10.2,0000.0,0020.82,0004.95,0002.23
2022-05-10 21:52:00,,0823.7,5.00,0.00,27.9,27.4,00.0,36.8,29.8,10.5,0000.0,0021.13,0004.87,0002.17
2022-05-10 21:53:00,,0823.7,5.00,0.00,28.0,27.4,00.0,36.8,29.8,10.2,0000.0,0020.40,0004.82,0002.11
2022-05-10 21:54:00,,0823.7,5.00,0.00,28.0,27.4,00.0,36.8,29.8,10.3,0000.0,0020.29,0004.86,0002.10
2022-05-10 21:55:00,,0823.7,5.00,0.00,28.0,27.4,00.0,36.8,29.9,10.5,0000.0,0019.58,0004.78,0002.05
2022-05-10 21:56:00,,0823.6,5.00,0.00,28.0,27.5,00.0,36.8,29.9,10.4,0000.0,0020.98,0004.72,0002.01
2022-05-10 21:57:00,,0823.6,5.01,0.00,28.0,27.5,00.0,36.8,29.9,10.5,0000.0,0021.43,0004.78,0002.01
2022-05-10 21:58:00,,0823.6,4.99,0.00,28.0,27.5,00.0,36.8,29.9,10.9,0000.0,0021.13,0004.76,0001.99
2022-05-10 21:59:00,,0823.6,5.01,0.00,28.1,27.5,00.0,36.8,29.9,11.1,0000.0,0020.85,0004.72,0001.98
